Regional Weather Roundup
Issued by NWS Cleveland, OH

Home | Current Version | Previous Version | Graphics & Text | Print | Product List | Glossary On
Versions: 1 2 3 4 5 6 7 8 9 10 11 12 13 14 15 16 17 18 19 20 21 22 23 24 25 26 27 28 29 30 31 32 33 34 35 36 37 38 39 40 41 42 43 44 45 46 47 48 49 50
000
ASUS41 KCLE 271512
RWRCLE
OHIO REGIONAL WEATHER ROUNDUP
NATIONAL WEATHER SERVICE WILMINGTON, OH
1100 AM EDT WED JUL 27 2016

NOTE: "FAIR" INDICATES FEW OR NO CLOUDS BELOW 12,000 FEET WITH NO
SIGNIFICANT WEATHER AND/OR OBSTRUCTIONS TO VISIBILITY.

OHZ001>008-015>018-024>027-034-035-043-044-271600-
   NORTHWEST OHIO

CITY           SKY/WX    TMP DP  RH WIND       PRES   REMARKS
DEFIANCE       FAIR      82  64  54 S6        30.02F
FINDLAY        FAIR      84  54  35 E3        30.02F
TOLEDO EXPRESS FAIR      81  63  54 CALM      30.02F
TOLEDO EXEC    FAIR      84  63  49 VRB3      30.02F
LIMA           FAIR      82  64  54 NW3       30.02F
$$

OHZ009>014-019>023-028>033-038-089-271600-
   NORTHEAST OHIO

CITY           SKY/WX    TMP DP  RH WIND       PRES   REMARKS
CLE-HOPKINS    FAIR      87  56  34 NW6       30.04F
CLE-LAKEFRONT  FAIR      81  64  56 NW7       30.02S
CUY CO. ARPT   SUNNY    N/A N/A N/A E9        30.03F
LORAIN-ELYRIA  FAIR      83  58  42 CALM      30.04F
ASHTABULA      FAIR      81  62  52 SW7       30.05S
AKRON-CANTON   FAIR      83  55  38 E6        30.04F
WOOSTER        FAIR      81  59  47 CALM      30.04F
MANSFIELD      FAIR      84  58  40 VRB7      30.04F
YOUNGSTOWN     FAIR      80  58  46 CALM      30.05S
$$

OHZ042-051>053-060>062-070>072-077>081-271600-
  SOUTHWEST OHIO

CITY           SKY/WX    TMP DP  RH WIND       PRES   REMARKS
CINC-COVINGTON CLOUDY    82  72  71 N5        30.03F
CINC-LUNKEN    FAIR      82  77  84 E3        30.01F HX  90
HAMILTON       FAIR      81  70  69 CALM      30.02F
DAYTON         FAIR      83  68  60 CALM      30.03F
WRIGHT-PAT AFB MOSUNNY   82  71  71 VRB1      30.01F
DAYTON GENERAL FAIR      82  67  60 W5        30.02F
WILMINGTON     PTSUNNY   81  72  74 CALM      30.02F
$$

OHZ036-037-039>041-045>050-054>059-063>069-073>076-082>088-271600-
  CENTRAL AND SOUTHEAST OHIO

CITY           SKY/WX    TMP DP  RH WIND       PRES   REMARKS
COLUMBUS       FAIR      83  70  64 N5        30.00F
OSU AIRPORT    FAIR      84  66  54 CALM      30.01F
BOLTON FIELD   MOSUNNY  N/A N/A N/A CALM      30.02F
RICKENBACK AFB FAIR      81  71  69 CALM      30.00F
NEWARK         FAIR      83  68  60 VRB3      30.01F
MARION         FAIR      83  59  44 E3        30.03F
LANCASTER      PTSUNNY   81  74  79 CALM      30.02F
ZANESVILLE     FAIR      83  71  67 VRB3      30.02F
NEW PHILLY     CLOUDY    86  61  42 N6        30.03F
$$




USA.gov is the U.S. government's official web portal to all federal, state and local government web resources and services.